TimeSAST,TemperatureF,Dew PointF,Humidity,Sea Level PressureIn,VisibilityMPH,Wind Direction,Wind SpeedMPH,Gust SpeedMPH,PrecipitationIn,Events,Conditions,WindDirDegrees,DateUTC
12:00 AM,37.4,15.8,41,30.36,-9999.0,Variable,2.3,-,N/A,,Unknown,0,2013-08-04 22:00:00
1:00 AM,35.6,17.6,48,30.33,-9999.0,WNW,2.3,-,N/A,,Unknown,300,2013-08-04 23:00:00
2:00 AM,34,15,31,,,Calm,Calm,,,,,,2013-08-05 00:00:00
2:00 AM,32.0,15.8,51,30.33,-9999.0,Calm,Calm,-,N/A,,Unknown,0,2013-08-05 00:00:00
3:00 AM,32.0,14.0,48,30.33,-9999.0,SW,2.3,-,N/A,,Unknown,220,2013-08-05 01:00:00
4:00 AM,32.0,15.8,51,30.33,-9999.0,East,3.5,-,N/A,,Unknown,80,2013-08-05 02:00:00
5:00 AM,30,17,46,,19,Calm,Calm,,,,,,2013-08-05 03:00:00
5:00 AM,32.0,17.6,55,30.33,-9999.0,WNW,1.2,-,N/A,,Clear,290,2013-08-05 03:00:00
6:00 AM,28.4,15.8,59,30.33,-9999.0,West,2.3,-,N/A,,Clear,270,2013-08-05 04:00:00
7:00 AM,30.2,17.6,60,30.36,-9999.0,SW,2.3,-,N/A,,Clear,220,2013-08-05 05:00:00
8:00 AM,38,19,34,,19,Calm,Calm,,,,,,2013-08-05 06:00:00
8:00 AM,37.4,19.4,48,30.36,-9999.0,SW,1.2,-,N/A,,Clear,220,2013-08-05 06:00:00
9:00 AM,46.4,23.0,40,30.36,-9999.0,Variable,2.3,-,N/A,,Clear,0,2013-08-05 07:00:00
9:50 AM,53.6,28.4,38,30.36,-9999.0,NE,3.5,-,N/A,,Clear,40,2013-08-05 07:50:00
10:00 AM,53.6,28.4,38,30.36,-9999.0,NE,3.5,-,N/A,,Clear,40,2013-08-05 08:00:00
11:00 AM,61,24,14,,19,ENE,2.3,,,,,60,2013-08-05 09:00:00
11:00 AM,60.8,24.8,25,30.36,-9999.0,ENE,1.2,-,N/A,,Clear,60,2013-08-05 09:00:00
12:00 PM,62.6,26.6,26,30.33,-9999.0,Variable,2.3,-,N/A,,Clear,0,2013-08-05 10:00:00
1:00 PM,64.4,21.2,19,30.30,-9999.0,NE,5.8,-,N/A,,Clear,40,2013-08-05 11:00:00
2:00 PM,67,15,6,,19,SSE,6.9,,,,,160,2013-08-05 12:00:00
2:00 PM,66.2,15.8,14,30.27,-9999.0,SSE,5.8,-,N/A,,Clear,160,2013-08-05 12:00:00
3:00 PM,66.2,23.0,19,30.27,-9999.0,NE,5.8,-,N/A,,Clear,50,2013-08-05 13:00:00
4:00 PM,66.2,21.2,18,30.24,-9999.0,Variable,4.6,-,N/A,,Clear,0,2013-08-05 14:00:00
5:00 PM,66,14,6,,19,ENE,3.5,,,,,70,2013-08-05 15:00:00
5:00 PM,64.4,14.0,14,30.24,-9999.0,ENE,3.5,-,N/A,,Clear,70,2013-08-05 15:00:00
6:00 PM,60.8,19.4,20,30.24,-9999.0,Calm,Calm,-,N/A,,Clear,0,2013-08-05 16:00:00
7:00 PM,51.8,17.6,26,30.24,-9999.0,WNW,3.5,-,N/A,,Clear,290,2013-08-05 17:00:00
8:00 PM,46,15,17,,19,SW,2.3,,,,,220,2013-08-05 18:00:00
8:00 PM,46.4,15.8,29,30.24,-9999.0,SW,2.3,-,N/A,,Clear,220,2013-08-05 18:00:00
9:00 PM,44.6,19.4,37,30.24,6.2,Variable,1.2,-,N/A,,Unknown,0,2013-08-05 19:00:00
10:00 PM,42.8,19.4,39,30.24,6.2,SSW,2.3,-,N/A,,Unknown,200,2013-08-05 20:00:00
11:00 PM,39,17,28,,,Calm,Calm,,,,,,2013-08-05 21:00:00
11:00 PM,37.4,17.6,45,30.24,-9999.0,Calm,Calm,-,N/A,,Unknown,0,2013-08-05 21:00:00